sat.trackr.live / text

‹ back to catalog

STARLINK-30851

NORAD 58215 · 2023-170K

PAYLOAD ACTIVE UNKNOWN

§ Identity

Operator
Country
US
Launch date
2023-11-03
Launch site
AFETR
Launch vehicle
Mass (kg)
RCS (m²)

Purposes: comms

External: N2YO · Heavens-Above · Gunter

§ Orbital elements

Epoch: 2026-09-19T04:16:10.062336Z

Period
94.27 min
Inclination
43.0031°
Eccentricity
0.0001190
Mean motion
15.27573184 rev/d
Perigee alt
482.3 km
Apogee alt
483.9 km
Semi-major
6,861.2 km
B*
4.8804e-5
RAAN
181.2772°
Arg perigee
275.3245°
Mean anomaly
84.7471°
Rev number
15,989

§ Raw data

STARLINK-308511 58215U 23170K   26262.17789424  .00001081  00000+0  48804-4 0  99912 58215  43.0031 181.2772 0001190 275.3245  84.7471 15.27573184159897

JSON: /api/v1/satellites/58215 · /tle

For live sub-satellite position, see the globe view (requires WebGL).

§ Visibility from observer

Set your observer location to see the next 7 days of passes ≥ 10°. The values pass through the URL so the page stays shareable.

No JS? Fill the form by hand. The geolocation button needs JavaScript.